Weather History for La Paz, B. C. S., Mexico

Change the Weather History Date:

Friday, November 16, 2012

  Actual Average Record
Temperature  
Mean Temperature 76 °F -  
Max Temperature 87 °F 79 °F - ()
Min Temperature 64 °F 56 °F - ()
Cooling Degree Days 12    
Growing Degree Days 26 (Base 50)    
Moisture  
Dew Point 59 °F    
Average Humidity 57    
Maximum Humidity 88    
Minimum Humidity 25    
Precipitation  
Precipitation 0.00 in - - ()
Sea Level Pressure  
Sea Level Pressure 29.99 in    
Wind  
Wind Speed 4 mph ()    
Max Wind Speed 12 mph    
Max Gust Speed -    
Visibility 10.7 miles    
Events      
T = Trace of Precipitation, MM = Missing Value Source: Averaged Metar Reports

Daily Weather History Graph

Daily Weather History Graph

Search for Another Location

Airport:

Trip Planner

Search our weather history database for the weather conditions in past years. The results will help you decide how hot, cold, wet, or windy it might be!

Date:

Astronomy

Nov. 16, 2012 Rise Set
Actual Time 6:37 AM MST 5:34 PM MST
Civil Twilight 6:13 AM MST 5:58 PM MST
Nautical Twilight 5:46 AM MST 6:26 PM MST
Astronomical Twilight 5:18 AM MST 6:53 PM MST
Moon 9:30 AM MST (11/16) 8:41 PM MST (11/16)
Length of Visible Light 11h 45m
Length of Day
10h 57m
Waxing Crescent, 12% of the Moon is Illuminated
Nov 16
Waxing Crescent
Nov 20
First Quarter
Nov 28
Full
Dec 6
Last Quarter
Dec 13
New

Hourly Weather History & Observations

Time (MST) Temp. Heat Index Dew Point Humidity Pressure Visibility Wind Dir Wind Speed Gust Speed Precip Events Conditions
1:50 AM 72 °F - 67 °F 79% 30.01 in 2 mi Calm Calm - -  
4:50 AM 71 °F - 64 °F 71% 29.98 in 2 mi Calm Calm - -  
5:54 AM 59.0 °F - 55.4 °F 88% 29.98 in 10.0 mi South 4.6 mph - N/A   Scattered Clouds
6:41 AM 59.0 °F - 55.4 °F 88% 30.00 in 10.0 mi Calm Calm - N/A   Scattered Clouds
7:50 AM 73 °F - 63 °F 62% 30.00 in 12 mi Calm Calm - -   Clear
8:00 AM 64.4 °F - 60.8 °F 88% 30.06 in 10.0 mi South 4.6 mph - N/A   Scattered Clouds
8:50 AM 71.6 °F - 60.8 °F 69% 30.02 in 10.0 mi Calm Calm - N/A   Mostly Cloudy
9:43 AM 78.8 °F - 59.0 °F 51% 30.02 in 10.0 mi North 8.1 mph - N/A   Mostly Cloudy
10:43 AM 78.8 °F - 59.0 °F 51% 30.07 in 10.0 mi NW 6.9 mph - N/A   Mostly Cloudy
10:50 AM 81 °F - 63 °F 45% 30.00 in 19 mi NNW 4.5 mph - -   Scattered Clouds
11:46 AM 80.6 °F 80.8 °F 57.2 °F 45% 29.99 in 12.0 mi NNW 10.4 mph - N/A   Mostly Cloudy
12:46 PM 82.4 °F 82.0 °F 57.2 °F 42% 29.96 in 15.0 mi NNW 9.2 mph - N/A   Scattered Clouds
1:50 PM 87 °F - 56 °F 25% 29.94 in 19 mi NNW 6.7 mph - -   Clear
1:51 PM 84.2 °F - 46.4 °F 27% 29.99 in 15.0 mi NNW 9.2 mph - N/A   Scattered Clouds
2:52 PM 84.2 °F 82.8 °F 53.6 °F 35% 29.93 in 15.0 mi NNW 10.4 mph - N/A   Scattered Clouds
3:40 PM 84.2 °F 82.8 °F 53.6 °F 35% 29.94 in 15.0 mi North 11.5 mph - N/A   Scattered Clouds
4:50 PM 82 °F - 61 °F 38% 29.93 in 19 mi North 6.7 mph - -   Clear
4:51 PM 80.6 °F 80.8 °F 57.2 °F 45% 29.98 in 10.0 mi NNE 5.8 mph - N/A   Mostly Cloudy
5:53 PM 77.0 °F - 60.8 °F 57% 29.95 in 10.0 mi NNE 9.2 mph - N/A   Scattered Clouds
6:55 PM 75.2 °F - 59.0 °F 57% 29.97 in 10.0 mi NE 6.9 mph - N/A   Scattered Clouds
7:50 PM 77 °F - 63 °F 53% 29.96 in 2 mi NNE 4.5 mph - -  
7:52 PM 73.4 °F - 60.8 °F 65% 29.98 in 10.0 mi NNE 5.8 mph - N/A   Scattered Clouds
8:44 PM 71.6 °F - 59.0 °F 64% 29.99 in 10.0 mi Calm Calm - N/A   Partly Cloudy
9:52 PM 66.2 °F - 57.2 °F 73% 29.99 in 10.0 mi Calm Calm - N/A   Partly Cloudy
10:45 PM 72 °F - 60 °F 56% 29.97 in 2 mi Calm Calm - -  
10:47 PM 64.4 °F - 57.2 °F 77% 30.10 in 10.0 mi SSW 5.8 mph - N/A   Partly Cloudy